Location: Newark
(43.0000°N, 1.6781°W)
Time: 06:43:22
(UTC+00:00)

XW-2C - Pass Details

Date: 09 December 2022
Orbit: 491 x 506 km, 97.5° (Epoch: 28 January)

Event Time Altitude Azimuth Distance (km) Brightness Sun altitude
Rises 18:21:07 0° 203° (SSW) 2,586 ? -19.2°
Reaches altitude 10° 18:23:45 10° 224° (SW) 1,703 ? -19.7°
Maximum altitude 18:26:15 17° 267° (W) 1,309 ? -20.1°
Drops below altitude 10° 18:28:45 10° 310° (NW) 1,705 ? -20.6°
Sets 18:31:24 0° 331° (NNW) 2,590 ? -21.1°
